GPRO Georgia

Formula 1 online manager


    Season 27, Race 7: Singapore

    Share
    avatar
    macbook

    Posts : 90
    Join date : 02.09.11

    Season 27, Race 7: Singapore

    Post by macbook on Sat Sep 24, 2011 8:06 pm

    Track information for Singapore (Singapore)
    Race information
    Lap times
    Qualification 1 Qualification 2
    1:35.319s 1:38.422s

    Setups used
    Session FWing RWing Eng Bra Gear Susp Tyres
    Q1 999 999 425 687 500 867 Medium
    Q2 999 999 425 687 500 867 Medium
    Race 999 999 425 687 500 867 -

    Risks used
    Starting risk
    Overtake where possible
    Overtake Defend Clear Malfunct
    0 10 15 0

    Positions
    Start Finish
    5 2

    Overall car character
    Power Handling Acceleration
    24 25 24

    Sessions weather
    Practice / Qualify 1 Qualify 2 / Race start
    Partially cloudy
    Temp: 34°C
    Humidity: 53% Sunny
    Temp: 34°C
    Humidity: 50%
    Race forecast
    Start - 0h30m 0h30m - 1h
    Temp: 36° - 40°
    Humidity: 48% - 57%
    Rain probability: 0% Temp: 35° - 39°
    Humidity: 50% - 60%
    Rain probability: 0%
    1h - 1h30m 1h30m - 2h
    Temp: 32° - 36°
    Humidity: 50% - 58%
    Rain probability: 0% Temp: 32° - 36°
    Humidity: 49% - 58%
    Rain probability: 0%


    Start fuel: 85 liters

    Pit Pitstop reason Tyres condition Fuel left Refilled to Pit time
    Stop 1:
    (Lap 21) No more fuel was left 13% 2% 85 liters 21.163s
    Stop 2:
    (Lap 42) No more fuel was left 13% 2% 90 liters 28.766s

    Tyres condition after finish: 25%

    Fuel left in the car after finish: 16 liters

    Show financial analysis as:
    Table
    Graph

    Financial analysis of the last race
    Earnings
    Driver race position (2): $7.800.000
    Driver qualifying position (5): $360.000
    Sponsor money: $1.000.000
    Costs
    Driver podium bonus: $-50.000
    Driver salary: $-2.200.000
    Staff salary: $-250.000
    Facility costs: $-190.000
    Tyres contract (Pipirelli): $-250.000

    Total: $6.220.000

    Current balance: $12.279.233
    Car wear & lap information
    Car parts level
    Cha Eng FWing RWing Underb Sidep Cool Gear Bra Susp Elec
    1 2 2 2 2 2 1 2 2 2 1
    Car parts wear (at the start)
    80% 56% 0% 0% 19% 0% 65% 33% 55% 26% 65%
    Car parts wear (at the finish)
    99% 71% 24% 21% 42% 16% 88% 53% 85% 44% 86%
    Lap Lap time Pos Tyres Weather Temp Hum Events
    0 - 5 Medium Sunny 34° 50% -
    1 1:41.224 6 Medium Sunny 34° 50% -
    2 1:35.481 6 Medium Sunny 34° 50% -
    3 1:34.907 6 Medium Sunny 34° 50% -
    4 1:35.134 6 Medium Sunny 34° 50% -
    5 1:34.723 6 Medium Sunny 34° 50% -
    6 1:34.520 6 Medium Sunny 34° 50% -
    7 1:34.437 6 Medium Sunny 35° 50% -
    8 1:34.140 6 Medium Sunny 36° 50% -
    9 1:34.073 6 Medium Sunny 37° 50% -
    10 1:34.959 5 Medium Sunny 37° 50% -
    11 1:34.030 5 Medium Sunny 37° 50% -
    12 1:33.870 5 Medium Sunny 37° 50% -
    13 1:33.812 5 Medium Sunny 37° 49% -
    14 1:33.756 4 Medium Sunny 38° 49% -
    15 1:33.682 4 Medium Sunny 38° 49% -
    16 1:33.469 3 Medium Sunny 39° 49% -
    17 1:33.442 3 Medium Sunny 40° 49% -
    18 1:33.505 2 Medium Sunny 40° 49% -
    19 1:33.401 2 Medium Sunny 40° 49% -
    20 1:33.568 2 Medium Sunny 40° 50% -
    21 1:43.636 5 Medium Sunny 39° 50% Pit
    22 2:05.421 9 Medium Sunny 38° 50% -
    23 1:35.068 4 Medium Sunny 37° 50% -
    24 1:35.041 4 Medium Sunny 36° 50% -
    25 1:34.782 3 Medium Sunny 36° 50% -
    26 1:34.715 2 Medium Sunny 35° 50% -
    27 1:34.692 2 Medium Sunny 35° 50% -
    28 1:34.520 2 Medium Sunny 36° 50% -
    29 1:34.437 2 Medium Sunny 37° 50% -
    30 1:34.274 3 Medium Sunny 38° 50% -
    31 1:34.137 3 Medium Sunny 39° 50% -
    32 1:34.012 2 Medium Sunny 39° 50% -
    33 1:34.065 2 Medium Sunny 39° 50% -
    34 1:34.003 2 Medium Sunny 39° 50% -
    35 1:33.897 1 Medium Sunny 39° 50% -
    36 1:33.799 1 Medium Sunny 39° 50% -
    37 1:33.743 1 Medium Sunny 39° 50% -
    38 1:33.747 1 Medium Sunny 38° 50% -
    39 1:33.634 1 Medium Sunny 38° 50% -
    40 1:33.558 1 Medium Sunny 37° 50% -
    41 1:33.919 1 Medium Sunny 36° 50% -
    42 1:43.005 1 Medium Sunny 36° 50% Pit
    43 2:13.285 7 Medium Sunny 35° 50% -
    44 1:35.621 7 Medium Sunny 34° 50% -
    45 1:35.251 4 Medium Sunny 33° 50% -
    46 1:34.977 4 Medium Sunny 33° 50% -
    47 1:34.884 5 Medium Sunny 33° 50% -
    48 1:43.600 5 Medium Sunny 32° 50% Driver mistake
    49 1:34.871 4 Medium Sunny 32° 50% -
    50 1:34.725 3 Medium Sunny 32° 50% -
    51 1:34.670 3 Medium Sunny 32° 50% -
    52 1:34.546 3 Medium Sunny 32° 50% -
    53 1:34.453 3 Medium Sunny 32° 50% -
    54 1:34.432 3 Medium Sunny 32° 50% -
    55 1:34.333 3 Medium Sunny 32° 50% -
    56 1:34.275 3 Medium Sunny 32° 50% -
    57 1:34.164 3 Medium Sunny 32° 50% -
    58 1:34.059 3 Medium Sunny 32° 50% -
    59 1:33.957 3 Medium Sunny 32° 49% -
    60 1:33.962 2 Medium Sunny 32° 49% -
    61 1:33.780 2 Medium Sunny 32° 49% -
    avatar
    macbook

    Posts : 90
    Join date : 02.09.11

    Pro 16

    Post by macbook on Sat Sep 24, 2011 8:07 pm

    Lap information
    Lap Lap time Pos Tyres Weather Temp Hum Events
    0 - 14 Soft Sunny 34° 50% -
    1 1:42.019 14 Soft Sunny 34° 50% -
    2 1:33.249 14 Soft Sunny 34° 50% -
    3 1:33.150 16 Soft Sunny 34° 50% -
    4 1:32.804 16 Soft Sunny 34° 50% -
    5 1:32.947 17 Soft Sunny 34° 50% -
    6 1:32.792 17 Soft Sunny 34° 50% -
    7 1:32.875 17 Soft Sunny 35° 50% -
    8 1:32.736 17 Soft Sunny 36° 50% -
    9 1:32.717 18 Soft Sunny 37° 50% -
    10 1:32.667 18 Soft Sunny 37° 50% -
    11 1:32.610 18 Soft Sunny 37° 50% -
    12 1:32.555 18 Soft Sunny 37° 50% -
    13 1:32.527 18 Soft Sunny 37° 49% -
    14 1:32.475 18 Soft Sunny 38° 49% -
    15 1:32.479 17 Soft Sunny 38° 49% -
    16 1:32.425 17 Soft Sunny 39° 49% -
    17 1:32.364 17 Soft Sunny 40° 49% -
    18 1:32.385 16 Soft Sunny 40° 49% -
    19 1:32.262 16 Soft Sunny 40° 49% -
    20 1:32.633 15 Soft Sunny 40° 50% -
    21 1:41.766 21 Soft Sunny 39° 50% Pit
    22 2:06.966 31 Soft Sunny 38° 50% -
    23 1:33.320 31 Soft Sunny 37° 50% -
    24 1:33.132 32 Soft Sunny 36° 50% -
    25 1:32.694 32 Soft Sunny 36° 50% -
    26 1:32.946 32 Soft Sunny 35° 50% -
    27 1:32.877 31 Soft Sunny 35° 50% -
    28 1:32.823 31 Soft Sunny 36° 50% -
    29 1:32.823 31 Soft Sunny 37° 50% -
    30 1:32.758 31 Soft Sunny 38° 50% -
    31 1:32.737 31 Soft Sunny 39° 50% -
    32 1:32.705 30 Soft Sunny 39° 50% -
    33 1:32.661 28 Soft Sunny 39° 50% -
    34 1:32.609 24 Soft Sunny 39° 50% -
    35 1:32.488 24 Soft Sunny 39° 50% -
    36 1:32.470 24 Soft Sunny 39° 50% -
    37 1:32.468 24 Soft Sunny 39° 50% -
    38 1:32.371 23 Soft Sunny 38° 50% -
    39 1:32.308 24 Soft Sunny 38° 50% -
    40 1:31.969 24 Soft Sunny 37° 50% -
    41 1:32.524 24 Soft Sunny 36° 50% -
    42 1:41.517 24 Soft Sunny 36° 50% Pit
    43 2:09.058 33 Soft Sunny 35° 50% -
    44 1:40.709 35 Soft Sunny 34° 50% Driver mistake
    45 1:33.113 35 Soft Sunny 33° 50% -
    46 1:33.017 35 Soft Sunny 33° 50% -
    47 1:32.883 35 Soft Sunny 33° 50% -
    48 1:32.845 35 Soft Sunny 32° 50% -
    49 1:32.704 35 Soft Sunny 32° 50% -
    50 1:33.258 35 Soft Sunny 32° 50% -
    51 1:34.015 35 Soft Sunny 32° 50% -
    52 1:32.851 34 Soft Sunny 32° 50% -
    53 1:33.084 34 Soft Sunny 32° 50% -
    54 1:34.737 34 Soft Sunny 32° 50% Car problem
    55 1:34.924 34 Soft Sunny 32° 50% Car problem
    56 1:34.917 34 Soft Sunny 32° 50% Car problem
    57 1:34.896 34 Soft Sunny 32° 50% Car problem
    58 1:34.911 34 Soft Sunny 32° 50% Car problem
    59 1:34.865 33 Soft Sunny 32° 49% Car problem
    60 1:34.925 33 Soft Sunny 32° 49% Car problem
    61 1:34.853 33 Soft Sunny 32° 49% Car problem

    Download the race analysis as Excel sheet

    Previous race: Singapore GP (Singapore)

    Power:
    Handling:
    Acceleration:
    Best qualifying lap
    Toygun Senler: 1:25.621s (Season 18)
    Track record
    Zdenek Hladik: 1:25.221s (Season 26)
    Weather forecast (for the previous race)
    Practice / Qualify 1 Qualify 2 / Race start

    Temp: 34°C
    Humidity: 53%
    Temp: 34°C
    Humidity: 50%
    Race forecast
    Start - 0h30m 0h30m - 1h
    Temp: 36°-40°
    Humidity: 48%-57%
    Rain probability: 0% Temp: 35°-39°
    Humidity: 50%-60%
    Rain probability: 0%
    1h - 1h30m 1h30m - 2h
    Temp: 32°-36°
    Humidity: 50%-58%
    Rain probability: 0% Temp: 32°-36°
    Humidity: 49%-58%
    Rain probability: 0%
    Race settings and strategy
    Risks used
    Overtake Defend Clear Malfunct
    0 0 0 0

    Setup used
    FWing RWing Eng Bra Gear Susp
    950 850 560 650 397 888

    Start fuel: 70 liters

    Pit Pitstop reason Tyres condition
    Fuel left Refilled to Pit time
    Stop 1
    (Lap 21) No more fuel was left 13% 1% 70 liters 24.675s
    Stop 2
    (Lap 42) No more fuel was left 12% 1% 75 liters 26.629s

    Technical problems
    Lap 54 The brakes broke and stopped functioning

    Tyres condition after finish: 25%

    Fuel left in the car after finish: 13 liters

    avatar
    mrfantom
    Admin

    Posts : 211
    Join date : 01.09.11
    Age : 27
    Location : Tbilisi

    Re: Season 27, Race 7: Singapore

    Post by mrfantom on Sun Sep 25, 2011 12:12 am

    Lap information
    Lap Lap time Pos Tyres Weather Temp Hum Events
    0 - 20 Medium Sunny 34° 50% -
    1 1:44.161 17 Medium Sunny 34° 50% -
    2 1:33.790 18 Medium Sunny 34° 50% -
    3 1:34.702 18 Medium Sunny 34° 50% -
    4 1:33.671 18 Medium Sunny 34° 50% -
    5 1:33.117 18 Medium Sunny 34° 50% -
    6 1:33.057 18 Medium Sunny 34° 50% -
    7 1:33.812 18 Medium Sunny 35° 50% -
    8 1:33.723 18 Medium Sunny 36° 50% -
    9 1:33.276 18 Medium Sunny 37° 50% -
    10 1:33.229 18 Medium Sunny 37° 50% -
    11 1:33.277 18 Medium Sunny 37° 50% -
    12 1:33.653 18 Medium Sunny 37° 50% -
    13 1:32.613 18 Medium Sunny 37° 49% -
    14 1:33.974 18 Medium Sunny 38° 49% -
    15 1:32.824 16 Medium Sunny 38° 49% -
    16 1:32.822 16 Medium Sunny 39° 49% -
    17 1:32.830 14 Medium Sunny 40° 49% -
    18 1:32.277 14 Medium Sunny 40° 49% -
    19 1:32.037 13 Medium Sunny 40° 49% -
    20 1:32.740 12 Medium Sunny 40° 50% -
    21 1:33.404 10 Medium Sunny 39° 50% -
    22 1:34.452 9 Medium Sunny 38° 50% -
    23 1:44.001 13 Medium Sunny 37° 50% Pit
    24 2:14.583 31 Medium Sunny 36° 50% -
    25 1:33.840 31 Medium Sunny 36° 50% -
    26 1:33.289 31 Medium Sunny 35° 50% -
    27 1:33.398 30 Medium Sunny 35° 50% -
    28 1:33.287 28 Medium Sunny 36° 50% -
    29 1:33.189 27 Medium Sunny 37° 50% -
    30 1:33.128 26 Medium Sunny 38° 50% -
    31 1:32.955 26 Medium Sunny 39° 50% -
    32 1:32.946 25 Medium Sunny 39° 50% -
    33 1:33.461 23 Medium Sunny 39° 50% -
    34 1:33.687 23 Medium Sunny 39° 50% -
    35 1:34.028 23 Medium Sunny 39° 50% -
    36 1:34.258 24 Medium Sunny 39° 50% -
    37 1:33.191 24 Medium Sunny 39° 50% -
    38 1:33.787 24 Medium Sunny 38° 50% -
    39 1:33.943 24 Medium Sunny 38° 50% -
    40 1:33.406 23 Medium Sunny 37° 50% -
    41 1:33.968 22 Medium Sunny 36° 50% -
    42 1:33.568 21 Medium Sunny 36° 50% -
    43 1:33.925 17 Medium Sunny 35° 50% -
    44 1:39.817 19 Medium Sunny 34° 50% Driver mistake
    45 1:34.742 17 Medium Sunny 33° 50% -
    46 1:44.195 19 Medium Sunny 33° 50% Pit
    47 2:11.067 29 Medium Sunny 33° 50% -
    48 1:34.207 29 Medium Sunny 32° 50% -
    49 1:34.319 27 Medium Sunny 32° 50% -
    50 1:33.619 27 Medium Sunny 32° 50% -
    51 1:33.946 26 Medium Sunny 32° 50% -
    52 1:33.461 26 Medium Sunny 32° 50% -
    53 1:33.356 25 Medium Sunny 32° 50% -
    54 1:33.282 24 Medium Sunny 32° 50% -
    55 1:33.263 24 Medium Sunny 32° 50% -
    56 1:33.248 24 Medium Sunny 32° 50% -
    57 1:33.164 24 Medium Sunny 32° 50% -
    58 1:33.051 24 Medium Sunny 32° 50% -
    59 1:33.031 24 Medium Sunny 32° 49% -
    60 1:32.915 23 Medium Sunny 32° 49% -
    61 1:32.915 23 Medium Sunny 32° 49% -


    Risks used
    Overtake Defend Clear Malfunct
    10 25 30 10

    Setup used
    FWing RWing Eng Bra Gear Susp
    880 950 486 649 536 890

    Start fuel: 81 liters

    Pit Pitstop reason Tyres condition
    Fuel left Refilled to Pit time
    Stop 1
    (Lap 23) No more fuel was left 2% 0% 81 liters 31.706s
    Stop 2
    (Lap 46) No more fuel was left 2% 0% 81 liters 28.184s

    Tyres condition after finish: 39%

    Fuel left in the car after finish: 28 liters
    avatar
    Matador

    Posts : 216
    Join date : 02.09.11
    Age : 35

    Matador, Rookie...

    Post by Matador on Sun Sep 25, 2011 2:19 am

    Lap informationLap Lap time Pos Tyres Weather Temp Hum Events
    0 - 2 Medium Sunny 34° 50% -
    1 1:39.911 5 Medium Sunny 34° 50% -
    2 1:34.739 6 Medium Sunny 34° 50% -
    3 1:35.344 6 Medium Sunny 34° 50% -
    4 1:34.279 6 Medium Sunny 34° 50% -
    5 1:34.125 6 Medium Sunny 34° 50% -
    6 1:34.761 6 Medium Sunny 34° 50% -
    7 1:35.045 6 Medium Sunny 35° 50% -
    8 1:33.680 6 Medium Sunny 36° 50% -
    9 1:33.797 6 Medium Sunny 37° 50% -
    10 1:33.512 5 Medium Sunny 37° 50% -
    11 1:34.138 4 Medium Sunny 37° 50% -
    12 1:34.341 4 Medium Sunny 37° 50% -
    13 1:34.325 3 Medium Sunny 37° 49% -
    14 1:33.790 3 Medium Sunny 38° 49% -
    15 1:33.196 3 Medium Sunny 38° 49% -
    16 1:33.185 3 Medium Sunny 39° 49% -
    17 1:33.231 3 Medium Sunny 40° 49% -
    18 1:33.876 3 Medium Sunny 40° 49% -
    19 1:33.373 3 Medium Sunny 40° 49% -
    20 1:34.177 3 Medium Sunny 40° 50% -
    21 1:34.111 2 Medium Sunny 39° 50% -
    22 1:43.499 2 Medium Sunny 38° 50% Pit
    23 2:11.587 6 Medium Sunny 37° 50% -
    24 1:34.919 5 Medium Sunny 36° 50% -
    25 1:34.532 5 Medium Sunny 36° 50% -
    26 1:34.322 5 Medium Sunny 35° 50% -
    27 1:35.126 5 Medium Sunny 35° 50% -
    28 1:34.400 4 Medium Sunny 36° 50% -
    29 1:33.977 5 Medium Sunny 37° 50% -
    30 1:33.787 5 Medium Sunny 38° 50% -
    31 1:33.804 4 Medium Sunny 39° 50% -
    32 1:33.660 3 Medium Sunny 39° 50% -
    33 1:33.582 3 Medium Sunny 39° 50% -
    34 1:33.517 2 Medium Sunny 39° 50% -
    35 1:33.417 2 Medium Sunny 39° 50% -
    36 1:33.375 2 Medium Sunny 39° 50% -
    37 1:33.278 2 Medium Sunny 39° 50% -
    38 1:33.275 2 Medium Sunny 38° 50% -
    39 1:33.173 2 Medium Sunny 38° 50% -
    40 1:33.129 2 Medium Sunny 37° 50% -
    41 1:33.030 2 Medium Sunny 36° 50% -
    42 1:33.566 1 Medium Sunny 36° 50% -
    43 1:42.793 2 Medium Sunny 35° 50% Pit
    44 2:10.484 4 Medium Sunny 34° 50% -
    45 1:35.036 4 Medium Sunny 33° 50% -
    46 1:34.659 3 Medium Sunny 33° 50% -
    47 1:34.382 2 Medium Sunny 33° 50% -
    48 1:34.315 2 Medium Sunny 32° 50% -
    49 1:34.305 2 Medium Sunny 32° 50% -
    50 1:34.216 2 Medium Sunny 32° 50% -
    51 1:33.981 2 Medium Sunny 32° 50% -
    52 1:35.276 2 Medium Sunny 32° 50% -
    53 1:34.630 2 Medium Sunny 32° 50% -
    54 1:34.944 2 Medium Sunny 32° 50% -
    55 1:33.593 2 Medium Sunny 32° 50% -
    56 1:34.487 2 Medium Sunny 32° 50% -
    57 1:34.603 2 Medium Sunny 32° 50% -
    58 1:34.160 2 Medium Sunny 32° 50% -
    59 1:33.921 2 Medium Sunny 32° 49% -
    60 1:33.054 2 Medium Sunny 32° 49% -
    61 1:33.852 2 Medium Sunny 32° 49% -

    Risks used
    Overtake Defend Clear Malfunct
    15 15 15 15

    Setup used
    FWing RWing Eng Bra Gear Susp
    964 914 424 711 497 791



    Start fuel: 87 litersPit Pitstop reason Tyres condition
    Fuel left Refilled to Pit time
    Stop 1
    (Lap 22) No more fuel was left 7% 1% 83 liters 27.789s
    Stop 2
    (Lap 43) No more fuel was left 11% 1% 83 liters 26.526s



    Tyres condition after finish: 27%

    Fuel left in the car after finish: 13 liters
    avatar
    Matador

    Posts : 216
    Join date : 02.09.11
    Age : 35

    OHO, Rookie

    Post by Matador on Sun Sep 25, 2011 2:22 am

    Lap information
    Lap Lap time Pos Tyres Weather Temp Hum Events
    0 - 9 Medium Sunny 34° 50% -
    1 1:42.826 12 Medium Sunny 34° 50% -
    2 1:35.918 12 Medium Sunny 34° 50% -
    3 1:35.599 12 Medium Sunny 34° 50% -
    4 1:35.357 12 Medium Sunny 34° 50% -
    5 1:35.611 12 Medium Sunny 34° 50% -
    6 1:35.730 11 Medium Sunny 34° 50% -
    7 1:35.397 11 Medium Sunny 35° 50% -
    8 1:35.322 12 Medium Sunny 36° 50% -
    9 1:34.855 12 Medium Sunny 37° 50% -
    10 1:35.460 12 Medium Sunny 37° 50% -
    11 1:34.576 12 Medium Sunny 37° 50% -
    12 1:34.434 11 Medium Sunny 37° 50% -
    13 1:34.856 10 Medium Sunny 37° 49% -
    14 1:35.681 8 Medium Sunny 38° 49% -
    15 1:42.123 9 Medium Sunny 38° 49% Driver mistake
    16 1:33.785 7 Medium Sunny 39° 49% -
    17 1:32.905 7 Medium Sunny 40° 49% -
    18 1:32.904 7 Medium Sunny 40° 49% -
    19 1:33.150 6 Medium Sunny 40° 49% -
    20 1:33.866 5 Medium Sunny 40° 50% -
    21 1:35.443 4 Medium Sunny 39° 50% -
    22 1:44.314 4 Medium Sunny 38° 50% Pit
    23 2:06.302 14 Medium Sunny 37° 50% -
    24 1:35.528 13 Medium Sunny 36° 50% -
    25 1:34.742 12 Medium Sunny 36° 50% -
    26 1:34.300 12 Medium Sunny 35° 50% -
    27 1:33.921 11 Medium Sunny 35° 50% -
    28 1:35.911 9 Medium Sunny 36° 50% -
    29 1:35.200 7 Medium Sunny 37° 50% -
    30 1:34.006 5 Medium Sunny 38° 50% -
    31 1:34.476 5 Medium Sunny 39° 50% -
    32 1:33.529 4 Medium Sunny 39° 50% -
    33 1:34.014 3 Medium Sunny 39° 50% -
    34 1:34.126 3 Medium Sunny 39° 50% -
    35 1:33.782 3 Medium Sunny 39° 50% -
    36 1:33.362 2 Medium Sunny 39° 50% -
    37 1:33.921 2 Medium Sunny 39° 50% -
    38 1:32.954 2 Medium Sunny 38° 50% -
    39 1:33.019 2 Medium Sunny 38° 50% -
    40 1:33.355 2 Medium Sunny 37° 50% -
    41 1:33.995 2 Medium Sunny 36° 50% -
    42 1:34.777 1 Medium Sunny 36° 50% -
    43 1:43.671 2 Medium Sunny 35° 50% Pit
    44 2:13.795 6 Medium Sunny 34° 50% -
    45 1:35.586 4 Medium Sunny 33° 50% -
    46 1:34.914 4 Medium Sunny 33° 50% -
    47 1:34.459 4 Medium Sunny 33° 50% -
    48 1:39.020 5 Medium Sunny 32° 50% Driver mistake
    49 1:34.181 4 Medium Sunny 32° 50% -
    50 1:34.556 4 Medium Sunny 32° 50% -
    51 1:34.222 4 Medium Sunny 32° 50% -
    52 1:34.211 4 Medium Sunny 32° 50% -
    53 1:34.330 4 Medium Sunny 32° 50% -
    54 1:34.026 4 Medium Sunny 32° 50% -
    55 1:34.343 4 Medium Sunny 32° 50% -
    56 1:33.671 3 Medium Sunny 32° 50% -
    57 1:34.762 3 Medium Sunny 32° 50% -
    58 1:33.912 3 Medium Sunny 32° 50% -
    59 1:34.451 3 Medium Sunny 32° 49% -
    60 1:34.078 3 Medium Sunny 32° 49% -
    61 1:33.971 3 Medium Sunny 32° 49% -

    Race settings and strategy
    Risks used
    Overtake Defend Clear Malfunct
    20 20 20 0

    Setup used
    FWing RWing Eng Bra Gear Susp
    988 888 407 730 522 794

    Start fuel: 89 liters
    Pit Pitstop reason Tyres condition
    Fuel left Refilled to Pit time
    Stop 1
    (Lap 22) No more fuel was left 4% 1% 85 liters 22.550s
    Stop 2
    (Lap 43) No more fuel was left 8% 1% 85 liters 29.835s

    Tyres condition after finish: 25%

    Fuel left in the car after finish: 13 liters

    CGSaba

    Posts : 23
    Join date : 20.09.11

    Re: Season 27, Race 7: Singapore

    Post by CGSaba on Sun Sep 25, 2011 8:50 pm

    ap Lap time Pos Tyres Weather Temp Hum Events
    0 - 22 Medium Sunny 34° 50% -
    1 1:57.319 26 Medium Sunny 34° 50% Pit
    2 2:16.606 24 Medium Sunny 34° 50% -
    3 1:35.811 24 Medium Sunny 34° 50% -
    4 1:35.410 24 Medium Sunny 34° 50% -
    5 1:35.149 24 Medium Sunny 34° 50% -
    6 1:35.004 24 Medium Sunny 34° 50% -
    7 1:34.897 24 Medium Sunny 35° 50% -
    8 1:34.825 24 Medium Sunny 36° 50% -
    9 1:34.635 24 Medium Sunny 37° 50% -
    10 1:34.585 24 Medium Sunny 37° 50% -
    11 1:34.492 24 Medium Sunny 37° 50% -
    12 1:34.401 24 Medium Sunny 37° 50% -
    13 1:34.777 24 Medium Sunny 37° 49% -
    14 1:34.080 24 Medium Sunny 38° 49% -
    15 1:34.030 23 Medium Sunny 38° 49% -
    16 1:33.795 23 Medium Sunny 39° 49% -
    17 1:34.398 22 Medium Sunny 40° 49% -
    18 1:35.937 22 Medium Sunny 40° 49% -
    19 1:34.127 20 Medium Sunny 40° 49% -
    20 1:33.732 18 Medium Sunny 40° 50% -
    21 1:34.248 16 Medium Sunny 39° 50% -
    22 1:43.471 17 Medium Sunny 38° 50% Pit
    23 2:15.355 23 Medium Sunny 37° 50% -
    24 1:44.087 23 Medium Sunny 36° 50% Driver mistake
    25 1:35.354 23 Medium Sunny 36° 50% -
    26 1:35.096 23 Medium Sunny 35° 50% -
    27 1:34.988 22 Medium Sunny 35° 50% -
    28 1:34.872 22 Medium Sunny 36° 50% -
    29 1:34.819 22 Medium Sunny 37° 50% -
    30 1:34.609 22 Medium Sunny 38° 50% -
    31 1:34.564 22 Medium Sunny 39° 50% -
    32 1:34.949 21 Medium Sunny 39° 50% -
    33 1:34.339 19 Medium Sunny 39° 50% -
    34 1:34.305 19 Medium Sunny 39° 50% -
    35 1:34.266 18 Medium Sunny 39° 50% -
    36 1:34.094 18 Medium Sunny 39° 50% -
    37 1:34.018 17 Medium Sunny 39° 50% -
    38 1:33.923 16 Medium Sunny 38° 50% -
    39 1:33.869 16 Medium Sunny 38° 50% -
    40 1:33.760 15 Medium Sunny 37° 50% -
    41 1:33.890 15 Medium Sunny 36° 50% -
    42 1:35.370 13 Medium Sunny 36° 50% -
    43 1:43.644 14 Medium Sunny 35° 50% Pit
    44 2:09.118 19 Medium Sunny 34° 50% -
    45 1:35.943 19 Medium Sunny 33° 50% -
    46 1:35.509 19 Medium Sunny 33° 50% -
    47 1:37.614 18 Medium Sunny 33° 50% -
    48 1:35.445 17 Medium Sunny 32° 50% -
    49 1:35.656 17 Medium Sunny 32° 50% -
    50 1:34.725 16 Medium Sunny 32° 50% -
    51 1:35.331 14 Medium Sunny 32° 50% -
    52 1:34.783 14 Medium Sunny 32° 50% -
    53 1:34.387 14 Medium Sunny 32° 50% -
    54 1:34.359 13 Medium Sunny 32° 50% -
    55 1:34.184 13 Medium Sunny 32° 50% -
    56 1:34.738 12 Medium Sunny 32° 50% -
    57 1:34.915 11 Medium Sunny 32° 50% -
    58 1:34.268 11 Medium Sunny 32° 50% -
    59 1:34.168 11 Medium Sunny 32° 49% -
    60 1:34.634 10 Medium Sunny 32° 49% -
    61 1:33.962 10 Medium Sunny 32° 49% -




    Overtake Defend Clear Malfunct
    20 20 20 20


    FWing RWing Eng Bra Gear Susp
    940 928 400 750 545 785


    Pit Pitstop reason Tyres condition
    Fuel left Refilled to Pit time
    Stop 1
    (Lap 1) Your car had a puncture 100% 44% No refill 31.796s
    Stop 2
    (Lap 22) No more fuel was left 10% 0% 79 liters 30.729s
    Stop 3
    (Lap 43) No more fuel was left 10% 0% 79 liters 24.364s



    Tyres condition after finish: 26%

    Fuel left in the car after finish: 11 liters

    Sponsored content

    Re: Season 27, Race 7: Singapore

    Post by Sponsored content


      Current date/time is Sat Jun 24, 2017 2:09 pm